This is the latest recevied weather packets stored in our database for station/object OK1KKY-18. If no packets are shown the sender has not sent any weather packets the latest 10 day(s).
| Time | Temp. | Humidity | Pressure | Rain* | Wind** | Luminosity | Snow |
|---|---|---|---|---|---|---|---|
| 1787582234 | 17.22° C | 59% | 1022.8 hPa | - | - | - | - |
| 1787581634 | 17.78° C | 57% | 1022.8 hPa | - | - | - | - |
| 1787581034 | 17.78° C | 60% | 1022.7 hPa | - | - | - | - |
| 1787580434 | 17.78° C | 56% | 1022.8 hPa | - | - | - | - |
| 1787579834 | 18.33° C | 55% | 1022.8 hPa | - | - | - | - |
| 1787579234 | 18.33° C | 50% | 1022.8 hPa | - | - | - | - |
| 1787578634 | 18.33° C | 49% | 1022.9 hPa | - | - | - | - |
| 1787578034 | 18.89° C | 48% | 1022.9 hPa | - | - | - | - |
| 1787577434 | 18.89° C | 48% | 1022.9 hPa | - | - | - | - |
| 1787576834 | 19.44° C | 46% | 1023 hPa | - | - | - | - |
| 1787576234 | 20° C | 43% | 1023 hPa | - | - | - | - |
| 1787575634 | 20.56° C | 43% | 1023.1 hPa | - | - | - | - |
| 1787575034 | 20° C | 42% | 1023.2 hPa | - | - | - | - |
| 1787574434 | 20° C | 44% | 1023.1 hPa | - | - | - | - |
| 1787573834 | 19.44° C | 46% | 1023.2 hPa | - | - | - | - |
| 1787573234 | 19.44° C | 47% | 1023.1 hPa | - | - | - | - |
| 1787572634 | 18.89° C | 45% | 1023.1 hPa | - | - | - | - |
| 1787572034 | 18.33° C | 48% | 1023.3 hPa | - | - | - | - |
| 1787571434 | 18.33° C | 44% | 1023.3 hPa | - | - | - | - |
| 1787570834 | 18.33° C | 47% | 1023.4 hPa | - | - | - | - |
| 1787570234 | 18.33° C | 47% | 1023.3 hPa | - | - | - | - |
| 1787569634 | 18.33° C | 48% | 1023.3 hPa | - | - | - | - |
| 1787569034 | 17.78° C | 49% | 1023.4 hPa | - | - | - | - |
| 1787568434 | 17.22° C | 49% | 1023.5 hPa | - | - | - | - |
| 1787567834 | 18.33° C | 47% | 1023.4 hPa | - | - | - | - |
* Rain since midnight (hover to see other rain measurements)
** Current wind speed in m/s (hover to see current wind gust speed)